Dyersburg, TN

11:24 PM CST on December 15, 2019 (GMT -0600)
Dyersburg Municipal

Weather History for KDYR - November, 2019

Change the Weather History Date:

Tuesday, November 12, 2019

  Actual Average Record
Temperature  
Mean Temperature 22 °F -  
Max Temperature 28 °F 56 °F 78 °F (2010)
Min Temperature 15 °F 40 °F 30 °F (1998)
Degree Days  
Heating Degree Days 44    
Moisture  
Dew Point 13 °F    
Average Humidity 72    
Maximum Humidity 84    
Minimum Humidity 56    
Precipitation  
Precipitation 0.00 in - - ()
Sea Level Pressure  
Sea Level Pressure 30.57 in    
Wind  
Wind Speed 12 mph ()    
Max Wind Speed 21 mph    
Max Gust Speed 31 mph    
Visibility 9.8 miles    
Events Snow    
Averages and records for this station are not official NWS values.
T = Trace of Precipitation, MM = Missing Value Source: Averaged Metar Reports

Daily Weather History Graph

Daily Weather History Graph

Search for Another Location

Airport or City:

Astronomy

Nov. 12, 2019 Rise Set
Actual Time 6:30 AM CST 4:52 PM CST
Civil Twilight 6:03 AM CST 5:19 PM CST
Nautical Twilight 5:32 AM CST 5:50 PM CST
Astronomical Twilight 5:02 AM CST 6:20 PM CST
Moon 5:18 PM CST (11/12) 6:23 AM CST (11/12)
Length of Visible Light 11h 15m
Length of Day
10h 21m
Full, 100% of the Moon is Illuminated
Nov 12
Full
Nov 19
Last Quarter
Nov 26
New
Dec 4
First Quarter
Dec 11
Full

Hourly Weather History & Observations

Time (CST) Temp. Windchill Dew Point Humidity Pressure Visibility Wind Dir Wind Speed Gust Speed Precip Events Conditions
1:56 AM 24.1 °F 9.4 °F 18.0 °F 77% 30.48 in 10.0 mi North 20.7 mph 26.5 mph N/A   Overcast
2:56 AM 19.9 °F 4.3 °F 12.9 °F 74% 30.51 in 10.0 mi North 19.6 mph 31.1 mph N/A   Partly Cloudy
3:56 AM 19.9 °F 6.7 °F 14.0 °F 78% 30.53 in 10.0 mi North 13.8 mph - N/A   Scattered Clouds
4:05 AM 19.4 °F 4.5 °F 14.0 °F 80% 30.51 in 10.0 mi North 17.3 mph 21.9 mph N/A Snow Light Snow
4:56 AM 19.9 °F 7.3 °F 14.0 °F 78% 30.56 in 9.0 mi North 12.7 mph - N/A Snow Light Snow
5:56 AM 18.0 °F 5.4 °F 12.9 °F 81% 30.58 in 9.0 mi North 11.5 mph - N/A Snow Light Snow
6:56 AM 18.0 °F 4.8 °F 12.0 °F 78% 30.59 in 9.0 mi North 12.7 mph - N/A Snow Light Snow
7:47 AM 17.6 °F 3.2 °F 12.2 °F 79% 30.58 in 9.0 mi North 15.0 mph 20.7 mph N/A Snow Light Snow
7:56 AM 19.9 °F 6.2 °F 12.9 °F 74% 30.63 in 9.0 mi NNW 15.0 mph 20.7 mph N/A Snow Light Snow
8:56 AM 21.9 °F 9.2 °F 12.9 °F 68% 30.63 in 10.0 mi North 13.8 mph - N/A   Clear
9:56 AM 25.0 °F 13.6 °F 14.0 °F 63% 30.63 in 10.0 mi NNW 12.7 mph - N/A   Scattered Clouds
10:13 AM 24.8 °F 13.4 °F 15.8 °F 69% 30.60 in 10.0 mi North 12.7 mph - N/A   Mostly Cloudy
10:56 AM 24.1 °F 12.0 °F 14.0 °F 65% 30.63 in 10.0 mi NNW 13.8 mph - N/A   Mostly Cloudy
11:03 AM 24.8 °F 14.0 °F 14.0 °F 64% 30.59 in 10.0 mi North 11.5 mph - N/A   Scattered Clouds
11:56 AM 27.0 °F 16.1 °F 15.1 °F 61% 30.60 in 10.0 mi North 12.7 mph 16.1 mph N/A   Partly Cloudy
12:56 PM 27.0 °F 15.6 °F 16.0 °F 63% 30.58 in 10.0 mi NNW 13.8 mph 18.4 mph N/A   Partly Cloudy
1:56 PM 27.0 °F 17.3 °F 16.0 °F 63% 30.56 in 10.0 mi NW 10.4 mph - N/A   Clear
2:56 PM 28.0 °F 19.3 °F 14.0 °F 56% 30.55 in 10.0 mi NNW 9.2 mph - N/A   Clear
3:56 PM 26.1 °F 16.8 °F 12.9 °F 58% 30.55 in 10.0 mi North 9.2 mph - N/A   Clear
4:56 PM 21.9 °F 13.4 °F 12.0 °F 66% 30.54 in 10.0 mi North 6.9 mph - N/A   Clear
5:56 PM 19.0 °F 11.1 °F 12.0 °F 74% 30.56 in 10.0 mi North 5.8 mph - N/A   Clear
6:56 PM 18.0 °F 8.7 °F 12.0 °F 78% 30.57 in 10.0 mi North 6.9 mph - N/A   Clear
7:56 PM 18.0 °F 9.8 °F 12.0 °F 78% 30.56 in 10.0 mi North 5.8 mph - N/A   Clear
8:56 PM 16.0 °F - 10.0 °F 77% 30.56 in 10.0 mi Calm Calm - N/A   Clear
9:56 PM 15.1 °F 9.4 °F 9.0 °F 77% 30.56 in 10.0 mi NNW 3.5 mph - N/A   Clear
10:56 PM 16.0 °F - 10.9 °F 81% 30.53 in 10.0 mi Calm Calm - N/A   Clear
11:56 PM 15.1 °F 7.7 °F 10.9 °F 84% 30.51 in 10.0 mi ENE 4.6 mph - N/A   Clear